EW1549 Las Puntas Isla de El Hierro ES current weather conditions

sailwx.info

Wind from 344 at 11 knots gusting 16

Air temperature 18.9° C
Dewpoint 13.3° C

Last reported at 2018-Jan-20 18:01 UTC.
Time now 2018-Jan-20 19:11 UTC

Location: N 27°47' W 017°60'.
View on Google Maps.

See reports from other nearby stations

  
Tides and Currents Weather Stations Pressure Air Temp Water Temp Dewpoint Dewpoint Depression Visibility Wind Speed Wind Dir Waves Ship Positions
date/time (UTC)wind fromknots sea level pressurealtimeterstation pressurevisibilityair tempwater tempwave heightnotes
2018-Jan-20 18:01 344 11 gusting 16 18.9
2018-Jan-20 17:46 344 8 gusting 15 19.4
2018-Jan-20 17:31 352 6 gusting 19 19.4
2018-Jan-20 17:16 346 6 gusting 19 19.4
2018-Jan-20 17:01 328 7 gusting 14 19.4
2018-Jan-20 16:46 339 8 gusting 14 20.0
2018-Jan-20 16:31 328 4 gusting 13 18.9
2018-Jan-20 16:16 307 5 gusting 13 18.9
2018-Jan-20 16:01 334 5 gusting 13 19.4
2018-Jan-20 15:46 334 7 gusting 16 18.9
2018-Jan-20 15:30 312 8 gusting 15 18.9
2018-Jan-20 15:15 347 8 gusting 14 18.9
2018-Jan-20 15:00 349 9 gusting 18 19.4
2018-Jan-20 14:45 321 3 gusting 12 19.4
2018-Jan-20 14:30 310 6 gusting 16 19.4
2018-Jan-20 14:15 343 6 gusting 13 19.4
2018-Jan-20 14:00 336 6 gusting 19 19.4
2018-Jan-20 13:45 288 6 gusting 16 19.4
2018-Jan-20 13:30 348 8 gusting 14 19.4
2018-Jan-20 13:16 311 7 gusting 16 18.9
2018-Jan-20 13:00 325 7 gusting 12 18.9
2018-Jan-20 12:45 341 3 gusting 13 18.9
2018-Jan-20 12:30 311 6 gusting 10 18.9
2018-Jan-20 12:15 267 1 gusting 10 18.9
2018-Jan-20 12:00 307 2 gusting 10 18.3
2018-Jan-20 11:45 321 4 gusting 6 18.3
2018-Jan-20 11:30 211 18.3
2018-Jan-20 11:15 317 5 gusting 8 18.9
2018-Jan-20 11:00 346 4 gusting 8 18.9
2018-Jan-20 10:45 342 2 gusting 7 18.9
2018-Jan-20 10:30 156 3 gusting 6 18.3
2018-Jan-20 10:15 159 2 gusting 7 18.3
2018-Jan-20 10:00 168 4 gusting 7 17.8
2018-Jan-20 09:45 181 3 gusting 7 17.8
2018-Jan-20 09:30 177 2 gusting 6 17.8
2018-Jan-20 09:15 182 3 gusting 9 17.2
2018-Jan-20 09:00 190 3 gusting 7 17.2
2018-Jan-20 08:45 147 6 gusting 9 17.2
2018-Jan-20 08:30 178 4 gusting 7 16.7
2018-Jan-20 08:15 169 3 gusting 7 16.7
2018-Jan-20 08:00 162 5 gusting 9 16.7
2018-Jan-20 07:45 159 7 gusting 10 17.2
2018-Jan-20 07:30 315 6 gusting 14 17.2
2018-Jan-20 07:15 235 4 gusting 7 16.7
2018-Jan-20 07:00 182 2 gusting 6 16.7
2018-Jan-20 06:45 182 0 gusting 7 17.2
2018-Jan-20 06:30 207 3 gusting 5 17.2
2018-Jan-20 06:15 184 17.2
2018-Jan-20 06:00 166 3 gusting 8 17.2
2018-Jan-20 05:45 172 1 gusting 7 17.2
2018-Jan-20 05:30 242 2 gusting 6 17.2
2018-Jan-20 05:15 215 17.2
2018-Jan-20 05:00 282 2 gusting 16 17.2
2018-Jan-20 04:45 314 0 gusting 6 17.2
2018-Jan-20 04:30 161 1 gusting 7 17.2
2018-Jan-20 04:15 237 0 gusting 11 17.2
2018-Jan-20 04:00 181 17.2
2018-Jan-20 03:45 286 5 gusting 14 17.2
2018-Jan-20 03:30 176 5 gusting 12 16.7
2018-Jan-20 03:15 170 4 gusting 14 17.2
2018-Jan-20 03:00 276 4 gusting 18 16.7
2018-Jan-20 02:44 186 2 gusting 7 17.2
2018-Jan-20 02:29 332 3 gusting 15 17.2
2018-Jan-20 02:14 225 3 gusting 9 17.2
2018-Jan-20 01:59 299 6 gusting 15 17.8
2018-Jan-20 01:44 280 1 gusting 10 17.2
2018-Jan-20 01:29 171 7 gusting 9 17.2
2018-Jan-20 01:14 321 4 gusting 9 17.8
2018-Jan-20 00:59 130 4 gusting 8 17.8
2018-Jan-20 00:44 276 1 gusting 14 17.8
2018-Jan-20 00:29 208 3 gusting 13 17.8
2018-Jan-20 00:14 167 3 gusting 6 17.2
2018-Jan-19 23:59 212 6 gusting 11 17.8
2018-Jan-19 23:44 181 4 gusting 8 17.8
2018-Jan-19 23:29 141 6 gusting 14 17.8
2018-Jan-19 23:14 115 6 gusting 9 17.8
2018-Jan-19 22:59 207 3 gusting 6 17.8
2018-Jan-19 22:44 165 5 gusting 13 17.8
2018-Jan-19 22:29 263 3 gusting 11 17.8
2018-Jan-19 22:14 149 6 gusting 19 17.8
2018-Jan-19 21:59 207 5 gusting 18 17.8
2018-Jan-19 21:45 228 4 gusting 13 17.8
2018-Jan-19 21:29 168 4 gusting 8 17.8
2018-Jan-19 21:14 159 5 gusting 10 17.8
2018-Jan-19 20:59 203 1 gusting 6 17.8
2018-Jan-19 20:44 336 0 gusting 8 17.8
2018-Jan-19 20:29 226 4 gusting 10 17.8
2018-Jan-19 20:14 147 6 gusting 10 17.8
2018-Jan-19 19:59 280 3 gusting 10 17.8
2018-Jan-19 19:44 347 4 gusting 24 17.8
2018-Jan-19 19:29 303 4 gusting 15 17.8
2018-Jan-19 19:14 307 2 gusting 7 18.3
2018-Jan-19 18:59 263 4 gusting 13 18.3
2018-Jan-19 18:44 228 3 gusting 15 18.3
2018-Jan-19 18:29 199 2 gusting 16 18.3
2018-Jan-19 18:14 232 2 gusting 13 18.3
2018-Jan-19 17:59 315 0 gusting 8 18.3
2018-Jan-19 17:44 282 3 gusting 15 18.3
2018-Jan-19 17:29 359 2 gusting 17 18.3
2018-Jan-19 17:14 270 5 gusting 18 18.9
2018-Jan-19 16:59 299 9 gusting 18 18.9
2018-Jan-19 16:44 315 5 gusting 22 18.9
2018-Jan-19 16:29 315 3 gusting 22 18.3
2018-Jan-19 16:14 328 13 gusting 22 18.3
2018-Jan-19 15:59 311 8 gusting 20 18.9
2018-Jan-19 15:44 337 3 gusting 21 18.9
2018-Jan-19 15:29 297 3 gusting 24 18.9
2018-Jan-19 15:14 296 9 gusting 16 18.9
2018-Jan-19 14:59 308 6 gusting 13 18.9
2018-Jan-19 14:44 345 8 gusting 16 18.9
2018-Jan-19 14:29 322 13 gusting 19 18.9
2018-Jan-19 14:14 307 6 gusting 13 19.4
2018-Jan-19 13:59 339 4 gusting 20 18.9
2018-Jan-19 13:44 302 7 gusting 19 18.9
2018-Jan-19 13:29 298 8 gusting 16 18.9
2018-Jan-19 13:14 320 6 gusting 17 18.9
2018-Jan-19 12:59 349 5 gusting 19 18.3
2018-Jan-19 12:44 309 7 gusting 17 18.9
2018-Jan-19 12:29 334 10 gusting 21 18.9
2018-Jan-19 12:13 331 5 gusting 21 18.9
2018-Jan-19 11:58 251 5 gusting 19 18.9
2018-Jan-19 11:43 324 10 gusting 16 18.3
2018-Jan-19 11:28 324 11 gusting 16 18.3
2018-Jan-19 11:13 313 7 gusting 17 18.3
2018-Jan-19 10:58 308 8 gusting 13 18.3
2018-Jan-19 10:43 293 8 gusting 14 18.3
2018-Jan-19 10:28 280 8 gusting 12 18.3
2018-Jan-19 10:13 350 4 gusting 20 17.8
2018-Jan-19 09:58 263 4 gusting 18 17.8
2018-Jan-19 09:43 269 5 gusting 16 17.8
2018-Jan-19 09:28 305 6 gusting 14 17.8
2018-Jan-19 09:13 338 0 gusting 8 17.8
2018-Jan-19 08:58 203 3 gusting 13 17.8
2018-Jan-19 08:43 319 4 gusting 13 17.8
2018-Jan-19 08:28 314 3 gusting 14 17.8
2018-Jan-19 08:13 332 1 gusting 13 17.8
2018-Jan-19 07:58 236 2 gusting 14 17.8
2018-Jan-19 07:43 351 5 gusting 13 17.8
2018-Jan-19 07:28 051 17.8
2018-Jan-19 07:13 346 8 gusting 19 17.8
2018-Jan-19 06:58 331 6 gusting 18 17.8
2018-Jan-19 06:43 207 8 gusting 29 17.8
2018-Jan-19 06:28 330 5 gusting 22 17.2
2018-Jan-19 06:13 330 12 gusting 26 17.2
2018-Jan-19 05:58 305 1 gusting 20 17.2
2018-Jan-19 05:43 340 3 gusting 18 17.2
2018-Jan-19 05:28 286 17.2
2018-Jan-19 05:13 293 17.2
2018-Jan-19 04:58 330 1 gusting 5 17.2
2018-Jan-19 04:43 009 0 gusting 8 17.2
2018-Jan-19 04:28 332 6 gusting 15 17.2
2018-Jan-19 04:13 330 6 gusting 13 17.2
2018-Jan-19 03:58 334 4 gusting 15 17.2
2018-Jan-19 03:43 257 0 gusting 11 16.7
2018-Jan-19 03:28 226 0 gusting 6 17.2
2018-Jan-19 03:12 300 5 gusting 13 17.2
2018-Jan-19 02:58 302 0 gusting 9 17.2
2018-Jan-19 02:43 188 3 gusting 7 17.2
2018-Jan-19 02:28 355 7 gusting 18 17.2
2018-Jan-19 02:13 360 2 gusting 16 17.2
2018-Jan-19 01:58 136 0 gusting 7 17.2
2018-Jan-19 01:43 299 3 gusting 12 17.2
2018-Jan-19 01:28 002 3 gusting 15 17.2
2018-Jan-19 01:12 323 4 gusting 19 17.8
2018-Jan-19 00:57 310 9 gusting 23 17.8
2018-Jan-19 00:42 106 6 gusting 26 17.2
2018-Jan-19 00:27 324 7 gusting 19 17.2
2018-Jan-19 00:12 336 4 gusting 19 17.8
2018-Jan-18 23:57 340 6 gusting 16 17.2
2018-Jan-18 23:42 009 2 gusting 11 17.2
2018-Jan-18 23:27 316 8 gusting 13 17.2
2018-Jan-18 23:12 291 1 gusting 9 17.2
2018-Jan-18 22:57 001 1 gusting 13 17.2
2018-Jan-18 22:42 331 3 gusting 14 17.2
2018-Jan-18 22:27 324 6 gusting 14 17.2
2018-Jan-18 22:12 009 6 gusting 9 17.2
2018-Jan-18 21:57 327 2 gusting 12 17.2
2018-Jan-18 21:42 330 6 gusting 15 17.2
2018-Jan-18 21:27 006 3 gusting 14 17.8
2018-Jan-18 21:12 346 5 gusting 26 17.2
2018-Jan-18 20:57 334 8 gusting 19 17.2
2018-Jan-18 20:42 341 6 gusting 20 17.8
2018-Jan-18 20:27 139 1 gusting 17 17.8
2018-Jan-18 20:12 315 8 gusting 20 17.8
2018-Jan-18 19:57 326 0 gusting 7 17.8
2018-Jan-18 19:42 337 2 gusting 16 17.8
2018-Jan-18 19:27 346 1 gusting 11 17.8
2018-Jan-18 19:12 356 3 gusting 10 17.8